Regional Weather Roundup
Issued by NWS

Home | Current Version | Previous Version | Text Only | Print | Product List | Glossary Off
Versions: 1 2 3 4 5 6 7 8 9 10 11 12 13 14 15 16 17 18 19 20 21 22 23 24 25 26 27 28 29 30 31 32 33 34 35 36 37 38 39 40 41 42 43 44 45 46 47 48 49 50

872
ASUS43 KLOT 070403
RWRIL

ILLINOIS REGIONAL WEATHER ROUNDUP
NATIONAL WEATHER SERVICE CHICAGO/ROMEOVILLE IL
1000 PM CST SAT FEB 06 2016

NOTE: "FAIR" INDICATES FEW OR NO CLOUDS BELOW 12,000 FEET WITH NO
SIGNIFICANT WEATHER AND/OR OBSTRUCTIONS TO VISIBILITY.

* THESE STATIONS ARE NOT UNDER NWS QUALITY CONTROL. THEY ALSO MAY NOT
  REPORT WEATHER SUCH AS PRECIPITATION OR FOG.

ILZ001-002-007-009-015-016-024-070500-
NORTHWEST ILLINOIS

CITY           SKY/WX    TMP DP  RH WIND       PRES   REMARKS
MOLINE         PTCLDY    35  28  75 S7        30.06F WCI  29
STERLING*      CLEAR     32  28  86 S3        30.04F
$$

ILZ003-004-008-010-011-017-018-070500-
NORTH CENTRAL ILLINOIS

CITY           SKY/WX    TMP DP  RH WIND       PRES   REMARKS
ROCKFORD       CLOUDY    30  27  88 S5        30.07F WCI  25
FREEPORT*      PTCLDY    30  28  94 S7        30.06F WCI  23
DE KALB*       CLEAR     28  27  94 S6        30.06F WCI  22
$$

ILZ005-006-012>014-019>023-070500-
NORTHEAST ILLINOIS

CITY           SKY/WX    TMP DP  RH WIND       PRES   REMARKS
CHICAGO-OHARE  PTCLDY    33  28  81 S8        30.07F WCI  26
CHICAGO-MIDWAY CLEAR     35  27  72 S7        30.09F WCI  29
AURORA         CLEAR     33  28  81 S5        30.08F WCI  29
LANSING*       CLEAR     31  27  88 S5        30.11F WCI  26
WAUKEGAN       CLEAR     30  26  85 SW7       30.05F WCI  23
DUPAGE AIRPORT CLEAR     30  25  81 S5        30.07F WCI  25
WHEELING       CLEAR     28  25  88 S5        30.08F WCI  23
NORTHERLY ISL    N/A     38  29  70 SW7         N/A  WCI  33
$$

LMZ740>746-070500-
SOUTHERN LAKE MICHIGAN

STATION/POSITION SKY/WX   TEMP    WIND        PRES    VSBY  WAVE
                          AIR SEA DIR/SP/G                  HT/PER
                          (F)     (DEG/KT/KT) (MB)    (MI)  (FT/S)
HARRISON CRIB              39     200/ 12/ 13   N/A
BURNHAM HARBOR             38     200/  6/  9   N/A
CALUMET HARBOR             35     180/  4/  8 1019.0F
BURNS HARBOR               36     190/ 10/ 13 1020.3F
MICHIGAN CITY              37     160/ 13/ 15   N/A
$$

ILZ025>027-034>036-040-047-049-050-058-095>099-070500-
WEST-CENTRAL ILLINOIS

CITY           SKY/WX    TMP DP  RH WIND       PRES   REMARKS
QUINCY         PTCLDY    35  25  66 SW9       30.11F WCI  28
MACOMB*        CLEAR     35  29  80 SW8       30.12F WCI  28
$$

ILZ028>032-037-038-041>044-048-051>054-059>061-070500-
CENTRAL ILLINOIS

CITY           SKY/WX    TMP DP  RH WIND       PRES   REMARKS
BLOOMINGTON    CLEAR     33  32  96 SW6       30.13F WCI  27
DECATUR        CLEAR     36  28  73 SW8       30.14F WCI  30
PEORIA         CLEAR     34  25  69 S5        30.11F WCI  30
LINCOLN*       CLEAR     34  31  88 CALM      30.13F
SPRINGFIELD    CLEAR     36  29  75 S5        30.14F WCI  32
TAYLORVILLE    NOT AVBL
$$

ILZ033-039-045-046-055>057-062-063-070500-
EAST-CENTRAL ILLINOIS

CITY           SKY/WX    TMP DP  RH WIND       PRES   REMARKS
CHAMPAIGN      CLEAR     33  28  81 S9        30.14F WCI  25
MATTOON        CLEAR     41  24  51 S9        30.15F
$$

ILZ079-100>102-070500-
SOUTHWEST ILLINOIS

CITY           SKY/WX    TMP DP  RH WIND       PRES   REMARKS
BELLEVILLE     CLEAR     38  26  61 CALM      30.17F
CAHOKIA*       CLEAR     39  25  57 S5        30.18S
SPARTA*        CLEAR     42  22  43 S7        30.21F
$$

ILZ064>066-069>071-074>076-080>082-084>086-088>090-092>094-070500-
SOUTH-CENTRAL ILLINOIS

CITY           SKY/WX    TMP DP  RH WIND       PRES   REMARKS
CARBONDALE     CLEAR     40  23  50 SW9       30.23F
MARION         CLEAR     37  25  60 SW8       30.24F WCI  31
MT. VERNON     CLEAR     36  23  60 S7        30.21F WCI  30
CENTRALIA*     CLEAR     41  28  60 S12       30.19F
SALEM*         CLEAR     44  24  47 S10       30.19S
$$

ILZ067-068-072-073-078-083-087-091-070500-
SOUTHEAST ILLINOIS

CITY           SKY/WX    TMP DP  RH WIND       PRES   REMARKS
LAWRENCEVILLE  CLEAR     33  27  78 S9        30.21F WCI  25
HARRISBURG*    CLEAR     40  26  57 SW3       30.24F
ROBINSON*      CLEAR     34  25  69 S8        30.21S WCI  27
CARMI*         PTCLDY    43  26  50 SW10      30.23S
$$

ABBREVIATIONS USED IN REMARKS
   TC - TEMPERATURE IN CELSIUS
  WCI - WIND CHILL INDEX
   HX - HEAT INDEX
  VSB - VISIBILITY
$$





USA.gov is the U.S. government's official web portal to all federal, state and local government web resources and services.